TimeCST,TemperatureF,Dew PointF,Humidity,Sea Level PressureIn,VisibilityMPH,Wind Direction,Wind SpeedMPH,Gust SpeedMPH,PrecipitationIn,Events,Conditions,WindDirDegrees,DateUTC
12:15 AM,33.8,32.0,93,29.85,10.0,Calm,Calm,-,N/A,,Clear,0,2013-02-14 06:15:00
12:35 AM,33.8,32.0,93,29.85,10.0,Calm,Calm,-,N/A,,Clear,0,2013-02-14 06:35:00
12:55 AM,33.8,32.0,93,29.84,10.0,Calm,Calm,-,N/A,,Clear,0,2013-02-14 06:55:00
1:15 AM,37.4,32.0,81,29.84,10.0,Calm,Calm,-,N/A,,Clear,0,2013-02-14 07:15:00
1:35 AM,37.4,32.0,81,29.84,10.0,Calm,Calm,-,N/A,,Clear,0,2013-02-14 07:35:00
1:55 AM,37.4,32.0,81,29.84,10.0,Calm,Calm,-,N/A,,Clear,0,2013-02-14 07:55:00
2:15 AM,37.4,32.0,81,29.84,10.0,Calm,Calm,-,N/A,,Mostly Cloudy,0,2013-02-14 08:15:00
2:35 AM,37.4,32.0,81,29.84,10.0,Calm,Calm,-,N/A,,Mostly Cloudy,0,2013-02-14 08:35:00
2:55 AM,32.0,30.2,93,29.84,10.0,Calm,Calm,-,N/A,,Scattered Clouds,0,2013-02-14 08:55:00
3:15 AM,32.0,30.2,93,29.83,10.0,Calm,Calm,-,N/A,,Scattered Clouds,0,2013-02-14 09:15:00
3:35 AM,33.8,32.0,93,29.83,10.0,Calm,Calm,-,N/A,,Scattered Clouds,0,2013-02-14 09:35:00
3:55 AM,32.0,28.4,87,29.83,10.0,Calm,Calm,-,N/A,,Mostly Cloudy,0,2013-02-14 09:55:00
4:15 AM,32.0,30.2,93,29.83,10.0,Calm,Calm,-,N/A,,Partly Cloudy,0,2013-02-14 10:15:00
4:35 AM,32.0,32.0,100,29.83,10.0,Calm,Calm,-,N/A,,Clear,0,2013-02-14 10:35:00
4:55 AM,32.0,30.2,93,29.83,10.0,Calm,Calm,-,N/A,,Clear,0,2013-02-14 10:55:00
5:15 AM,32.0,28.4,87,29.83,10.0,Calm,Calm,-,N/A,,Clear,0,2013-02-14 11:15:00
5:35 AM,32.0,30.2,93,29.83,10.0,Calm,Calm,-,N/A,,Clear,0,2013-02-14 11:35:00
5:55 AM,32.0,30.2,93,29.84,10.0,Calm,Calm,-,N/A,,Clear,0,2013-02-14 11:55:00
6:15 AM,32.0,28.4,87,29.86,10.0,Calm,Calm,-,N/A,,Clear,0,2013-02-14 12:15:00
6:35 AM,33.8,30.2,87,29.86,10.0,Calm,Calm,-,N/A,,Clear,0,2013-02-14 12:35:00
6:55 AM,32.0,32.0,100,29.86,10.0,Calm,Calm,-,N/A,,Clear,0,2013-02-14 12:55:00
7:15 AM,30.2,28.4,93,29.88,10.0,NNW,3.5,-,N/A,,Partly Cloudy,330,2013-02-14 13:15:00
7:35 AM,35.6,30.2,81,29.89,10.0,Calm,Calm,-,N/A,,Mostly Cloudy,0,2013-02-14 13:35:00
7:55 AM,33.8,32.0,93,29.90,10.0,North,3.5,-,N/A,,Overcast,350,2013-02-14 13:55:00
8:15 AM,37.4,32.0,81,29.91,10.0,North,3.5,-,N/A,,Scattered Clouds,360,2013-02-14 14:15:00
8:35 AM,39.2,32.0,75,29.91,10.0,NNW,3.5,-,N/A,,Scattered Clouds,330,2013-02-14 14:35:00
8:55 AM,39.2,32.0,75,29.92,10.0,NW,5.8,-,N/A,,Partly Cloudy,320,2013-02-14 14:55:00
9:15 AM,41.0,32.0,70,29.92,10.0,WNW,8.1,-,N/A,,Clear,300,2013-02-14 15:15:00
9:35 AM,42.8,32.0,66,29.92,10.0,NW,9.2,-,N/A,,Clear,310,2013-02-14 15:35:00
9:55 AM,44.6,32.0,61,29.93,10.0,WNW,13.8,-,N/A,,Clear,290,2013-02-14 15:55:00
10:15 AM,46.4,32.0,57,29.93,10.0,NW,12.7,17.3,N/A,,Clear,310,2013-02-14 16:15:00
10:35 AM,46.4,32.0,57,29.94,10.0,WNW,12.7,-,N/A,,Clear,300,2013-02-14 16:35:00
10:55 AM,48.2,32.0,54,29.94,10.0,WNW,13.8,18.4,N/A,,Clear,290,2013-02-14 16:55:00
11:15 AM,48.2,32.0,54,29.94,10.0,WNW,10.4,18.4,N/A,,Clear,290,2013-02-14 17:15:00
11:35 AM,48.2,33.8,58,29.94,10.0,WNW,13.8,18.4,N/A,,Clear,300,2013-02-14 17:35:00
11:55 AM,50.0,32.0,50,29.94,10.0,West,9.2,20.7,N/A,,Clear,280,2013-02-14 17:55:00
12:15 PM,50.0,32.0,50,29.94,10.0,WNW,11.5,18.4,N/A,,Clear,290,2013-02-14 18:15:00
12:35 PM,50.0,32.0,50,29.93,10.0,West,9.2,-,N/A,,Clear,280,2013-02-14 18:35:00
12:55 PM,51.8,32.0,47,29.92,10.0,WNW,10.4,17.3,N/A,,Clear,290,2013-02-14 18:55:00
1:15 PM,53.6,32.0,44,29.92,10.0,WNW,13.8,21.9,N/A,,Clear,290,2013-02-14 19:15:00
1:35 PM,53.6,32.0,44,29.92,10.0,West,10.4,-,N/A,,Clear,280,2013-02-14 19:35:00
1:55 PM,53.6,32.0,44,29.92,10.0,West,10.4,19.6,N/A,,Clear,280,2013-02-14 19:55:00
2:15 PM,53.6,32.0,44,29.92,10.0,West,9.2,19.6,N/A,,Clear,270,2013-02-14 20:15:00
2:35 PM,53.6,30.2,41,29.93,10.0,WNW,8.1,16.1,N/A,,Clear,290,2013-02-14 20:35:00
2:55 PM,53.6,28.4,38,29.93,10.0,West,10.4,21.9,N/A,,Clear,280,2013-02-14 20:55:00
3:15 PM,53.6,28.4,38,29.94,10.0,West,11.5,16.1,N/A,,Clear,280,2013-02-14 21:15:00
3:35 PM,53.6,28.4,38,29.94,10.0,WNW,15.0,-,N/A,,Clear,300,2013-02-14 21:35:00
3:55 PM,53.6,28.4,38,29.95,10.0,WNW,13.8,21.9,N/A,,Clear,290,2013-02-14 21:55:00
4:15 PM,53.6,28.4,38,29.95,10.0,NW,15.0,-,N/A,,Clear,310,2013-02-14 22:15:00
4:35 PM,53.6,26.6,35,29.96,10.0,NW,12.7,21.9,N/A,,Clear,310,2013-02-14 22:35:00
4:55 PM,51.8,26.6,38,29.97,10.0,NW,10.4,-,N/A,,Clear,310,2013-02-14 22:55:00
5:15 PM,50.0,28.4,43,29.98,10.0,NW,10.4,-,N/A,,Clear,310,2013-02-14 23:15:00
5:35 PM,48.2,28.4,46,29.99,10.0,NW,12.7,-,N/A,,Clear,310,2013-02-14 23:35:00
5:55 PM,48.2,28.4,46,30.00,10.0,NW,11.5,-,N/A,,Clear,320,2013-02-14 23:55:00
6:15 PM,46.4,30.2,53,30.01,10.0,NW,6.9,-,N/A,,Clear,320,2013-02-15 00:15:00
6:35 PM,46.4,32.0,57,30.02,10.0,NNW,6.9,-,N/A,,Scattered Clouds,330,2013-02-15 00:35:00
6:55 PM,46.4,32.0,57,30.03,10.0,NNW,6.9,-,N/A,,Scattered Clouds,340,2013-02-15 00:55:00
7:15 PM,46.4,32.0,57,30.04,10.0,NW,4.6,-,N/A,,Clear,320,2013-02-15 01:15:00
7:35 PM,44.6,32.0,61,30.04,10.0,NNW,3.5,-,N/A,,Mostly Cloudy,330,2013-02-15 01:35:00
7:55 PM,44.6,32.0,61,30.04,10.0,NNW,3.5,-,N/A,,Overcast,330,2013-02-15 01:55:00
8:35 PM,42.8,32.0,66,30.04,10.0,Calm,Calm,-,N/A,,Overcast,0,2013-02-15 02:35:00
8:55 PM,39.2,32.0,75,30.05,10.0,Calm,Calm,-,N/A,,Mostly Cloudy,0,2013-02-15 02:55:00
9:15 PM,39.2,32.0,75,30.05,10.0,Calm,Calm,-,N/A,,Overcast,0,2013-02-15 03:15:00
9:35 PM,42.8,32.0,66,30.05,10.0,Calm,Calm,-,N/A,,Overcast,0,2013-02-15 03:35:00
9:55 PM,41.0,30.2,65,30.05,10.0,NNW,4.6,-,N/A,,Overcast,330,2013-02-15 03:55:00
10:15 PM,41.0,30.2,65,30.06,10.0,NNW,4.6,-,N/A,,Overcast,340,2013-02-15 04:15:00
10:35 PM,41.0,30.2,65,30.06,10.0,North,4.6,-,N/A,,Overcast,360,2013-02-15 04:35:00
10:55 PM,41.0,30.2,65,30.07,10.0,NNW,4.6,-,N/A,,Overcast,330,2013-02-15 04:55:00
11:15 PM,39.2,30.2,70,30.07,10.0,NW,4.6,-,N/A,,Overcast,320,2013-02-15 05:15:00
11:35 PM,37.4,32.0,81,30.07,10.0,WNW,4.6,-,N/A,,Overcast,300,2013-02-15 05:35:00
11:55 PM,39.2,32.0,75,30.08,10.0,NW,3.5,-,N/A,,Overcast,310,2013-02-15 05:55:00